Location: Newark
(36.3167°N, 139.0000°E)
Time: 18:39:17
(UTC+00:00)

Envisat - Visible Passes

Search period start: 14 October 2019 00:00
Search period end: 24 October 2019 00:00
Orbit: 764 x 766 km, 98.1° (Epoch: 14 October)

Date Brightness Start Highest point End Pass type
(mag) Time Alt. Az. Time Alt. Az. Time Alt. Az.
14 Oct 4.5 09:30:25 10° SSW 09:35:07 38° W 09:39:52 10° NNW visible
15 Oct 3.0 08:53:14 10° SSE 08:58:18 89° E 09:03:25 10° NNW visible
16 Oct 5.5 09:56:58 10° SW 10:00:47 21° W 10:04:36 10° NW visible
17 Oct 4.0 09:18:55 10° S 09:23:50 50° W 09:28:46 10° NNW visible
18 Oct 2.9 08:42:02 10° SSE 08:47:03 70° ENE 08:52:07 10° N visible
18 Oct 6.2 10:25:02 10° WSW 10:26:31 11° W 10:28:01 10° WNW visible
19 Oct 5.1 09:45:10 10° SSW 09:49:26 27° W 09:53:44 10° NW visible
19 Oct 6.5 20:19:20 10° ENE 20:21:22 12° E 20:23:25 10° ESE visible
20 Oct 3.5 09:07:31 10° S 09:12:33 65° W 09:17:36 10° NNW visible
21 Oct 3.1 08:30:55 10° SSE 08:35:50 54° ENE 08:40:47 10° N visible
21 Oct 6.0 10:12:19 10° SW 10:15:09 15° W 10:17:58 10° WNW visible
22 Oct 4.7 09:33:31 10° SSW 09:38:07 35° W 09:42:45 10° NNW visible
23 Oct 3.1 08:56:13 10° S 09:01:17 83° WSW 09:06:23 10° NNW visible
